sat.trackr.live / text

‹ back to catalog

STARLINK-2644

NORAD 48442 · 2021-040Q

PAYLOAD ACTIVE UNKNOWN

§ Identity

Operator
Country
US
Launch date
2021-05-09
Launch site
AFETR
Launch vehicle
Mass (kg)
RCS (m²)

Purposes: comms

External: N2YO · Heavens-Above · Gunter

§ Orbital elements

Epoch: 2026-05-24T11:01:36.893856Z

Period
93.38 min
Inclination
53.1597°
Eccentricity
0.0001023
Mean motion
15.42145164 rev/d
Perigee alt
439.1 km
Apogee alt
440.5 km
Semi-major
6,817.9 km
B*
8.5179e-4
RAAN
185.2291°
Arg perigee
78.3100°
Mean anomaly
281.8021°
Rev number
27,829

§ Raw data

STARLINK-26441 48442U 21040Q   26144.45945479  .00036814  00000+0  85179-3 0  99972 48442  53.1597 185.2291 0001023  78.3100 281.8021 15.42145164278290

JSON: /api/v1/satellites/48442 · /tle

For live sub-satellite position, see the globe view (requires WebGL).

§ Visibility from observer

Set your observer location to see the next 7 days of passes ≥ 10°. The values pass through the URL so the page stays shareable.

No JS? Fill the form by hand. The geolocation button needs JavaScript.